Weather in Valencia

Spain     39°27′50″N   0°22′32″E
temp.,
°C
wind,
m/s
gust,
m/s
humid.,
%
clouds,
%
prec.,
mm/h
press.,
hPa
HPBL,
m
16 may, sun
sun1623:00+23w3337100 0.0 101232
02:00+21wsw334462 0.0 101221
05:00+20w47507 0.0 1011103
08:00+20w47583 0.0 1012153
11:00+28w79332 0.0 10121113
14:00+33wsw810202 0.0 10102148
17:00+34w81018100 0.0 10082594
20:00+30nw592899 0.0 1009330
17 may, mon
mon1723:00+25wnw223818 0.0 101217
02:00+21sse115413 0.0 101345
05:00+17e389082 0.0 1016404
08:00+17ene248247 0.0 1018444
11:00+20e326387 0.0 10191067
14:00+20ese546222 0.0 1018823
17:00+21ese6558100 0.0 1017929
20:00+19ese4468100 0.0 1018617
18 may, tue
tue1823:00+16e1183100 0.0 102011
02:00+16n228551 0.0 102024
05:00+16nne1185100 0.0 102019
08:00+16n128181 0.0 1021153
11:00+20ene226666 0.0 1021975
14:00+22e645922 0.0 1020848
17:00+21e656332 0.0 1019831
20:00+19e44696 0.0 1020622
19 may, wed
wed1923:00+16ne23844 0.0 102250
02:00+15nnw11885 0.0 102316
05:00+15n22894 0.0 102320
08:00+16n128096 0.0 1024119
11:00+20e335972 0.0 10251159
14:00+21se445774 0.0 10241073
17:00+23ese535249 0.0 10231184
20:00+19ese44629 0.0 1023443
20 may, thu
thu2023:00+16e1184100 0.0 102511
02:00+15nw11859 0.0 102511
05:00+15wnw118231 0.0 102411
08:00+16wsw117399 0.0 102462
11:00+21se225235 0.0 1024743
14:00+25ese534351 0.0 10221136
17:00+23ese6551100 0.0 1021645
20:00+20e44635 0.0 1020464